Regional Weather Roundup
Issued by NWS Midland/Odessa, TX

Home | Current Version | Previous Version | Text Only | Print | Product List | Glossary On
Versions: 1 2 3 4 5 6 7 8 9 10 11 12 13 14 15 16 17 18 19 20 21 22 23 24 25 26 27 28 29 30 31 32 33 34 35 36 37 38 39 40 41 42 43 44 45 46 47 48 49 50
000
ASUS44 KMAF 200610
RWRMAF
MIDLAND AREA WEATHER ROUNDUP
NATIONAL WEATHER SERVICE MIDLAND TX
1200 AM CST SAT JAN 20 2018

...IN SOUTHWEST TEXAS AND SOUTHEAST NEW MEXICO...

CITY           SKY/WX    TMP DP  RH WIND       PRES   REMARKS
ALPINE         CLOUDY    52  22  31 CALM      30.09R
ANDREWS        FAIR      45  24  43 SW13      29.91F WCI  39
ARTESIA        CLEAR     50  14  23 CALM      29.91R
BIG SPRING     CLOUDY    45  31  59 S16       29.95S WCI  38
CARLSBAD       CLEAR     43  13  29 CALM      29.90R
DRYDEN           N/A    N/A N/A N/A NE3       30.00F
FORT STOCKTON  CLOUDY    54  22  28 SW15      29.95F
GUAD PASS      PTCLDY    47  17  30 SW20G28   30.03S WCI  40
HOBBS          CLOUDY    46  12  25 W9        29.90S
LAMESA         FAIR      39  25  56 S6        29.91F WCI  35
MARFA          CLOUDY    25  15  66 N3        30.08S
MIDLAND AIRPK    N/A     46  29  50 S7        29.93S
MIDLAND INTL   CLOUDY    44  27  51 S8        29.93S WCI  39
ODESSA         CLOUDY    45  29  53 SW13      29.93S WCI  39
PECOS          CLEAR     36  13  38 E5        29.93S WCI  32
PRESIDIO       FAIR      49  24  37 N9        30.04S
SEMINOLE       CLOUDY    42  13  31 SW9       29.92R WCI  36
SNYDER         CLEAR     44  31  60 S12       29.93S WCI  39
WINK           CLOUDY    38  21  50 SE7       29.92S WCI  33
$$
...OTHER STATIONS IN TEXAS...

CITY           SKY/WX    TMP DP  RH WIND       PRES   REMARKS
ABILENE        CLEAR     47  45  93 S14       29.95S
AMARILLO       CLOUDY    41  12  30 SW13      29.79S WCI  34
AUSTIN         CLOUDY    52  52 100 S8        30.09F FOG
BROWNSVILLE    CLOUDY    54  53  97 NW6       30.13S FOG
CORPUS CHRISTI DRZL/FOG  50  50 100 CALM      30.12S VSB 3/4
DALLAS FTW     CLOUDY    55  48  77 S14       30.02F
DEL RIO        CLOUDY    46  45  96 SE15      30.07S WCI  40
EL PASO        PTCLDY    46  20  35 SE3       30.01S
HOUSTON INT    LGT RAIN  52  52 100 SE6       30.14F VSB 1/4
LUBBOCK        CLOUDY    47  13  25 SW13      29.85F
SAN ANGELO     CLEAR     46  40  79 SW12      29.98R
SAN ANTONIO    DRZL/FOG  49  48  97 S7        30.11S VSB 3/4
WACO           CLOUDY    52  52 100 S12       30.06F FOG
WICHITA FALLS  CLOUDY    43  34  70 S17       29.81S WCI  35
$$
...OTHER LOCATIONS IN NEW MEXICO...

CITY           SKY/WX    TMP DP  RH WIND       PRES   REMARKS
ALAMOGORDO     PTCLDY    36   9  32 N5        30.03S WCI  32
ALBUQUERQUE    CLEAR     41  13  31 E5        30.02R WCI  38
CANNON AFB     CLEAR     43  10  26 W13       29.89R WCI  36
CLOVIS         CLEAR     47  12  24 W16       29.86R
HOLLOMAN AFB   PTCLDY    31   8  37 N5        30.04S WCI  26
ROSWELL        CLEAR     35   8  32 E3        29.90S
RUIDOSO        PTCLDY    46   5  18 W3        30.07R
SANTA FE       CLEAR     42  13  30 W7        30.02R WCI  38
TRUTH OR CONSE CLEAR     45  10  24 NW8       30.01R
TUCUMCARI      PTCLDY    52  13  21 W17       29.82R
$$



USA.gov is the U.S. government's official web portal to all federal, state and local government web resources and services.